OBJECT C, 59775

Orbit data source: Space-Track

You're viewing an Uncataloged Satellite

Recently launched and/or uncataloged satellites may have evolving metadata. Metadata may include but not limited to: Owner, Maufacturer, Bus, Motor, and Mission.

OBJECT C, 59775 is a satellite owned by Sputniks (CIS) in SSO that was launched on Thu, 16 May 2024 UTC via a SOYUZ-2-1B launch vehicle from the Plesetsk Missile And Space Complex (PKMTR). Unknown objects in Earth's orbit typically refer to objects detected orbiting the Earth but have not yet been identified or cataloged. These objects could be anything from previously untracked satellites, spent rocket stages, debris from satellite collisions, or even natural meteoroids temporarily captured by Earth's gravity.

Loading next visibility...
OBJECT C details
Identifier
59775, 2024-092C
Orbit
SSO
Last TLE update12 hours ago
Origin
Flag of CISSputniks (CIS)
ManufacturerSputniks
MissionOperational spacecraft
Bus & MotorCUBESAT 12U, Unknown motor
Mass20 kg wet, 20 kg dry
Launch date (UTC)
2024-05-16 (7 months ago)
Launch vehicle
SOYUZ-2-1B
Launch site
Plesetsk Missile And Space Complex (PKMTR)
Object typeUnknown
Shape & HBRUnknown
Radar Cross SectionMedium (>0.1 m² and <1 m²)

Expand to show TLE details & history

TLE from 12 hours ago
0 OBJECT C
1 59775U 24092C   24348.46898936  .00011098  00000-0  59566-3 0  9997
2 59775  97.6153  99.6737 0011265 305.5269  54.4912 15.15061385 31781
Epoch: 2024-12-13T11:15Z
Definitive object data (Epoch: 2024-12-13T11:15:20.68Z)
Latitude-0°
Longitude-151.79699°
Altitude519.361 km
Speed7.606 km/s
True Right ascension06h 38m 41s
True Declination0° 00' 00"
Sunlit
Object was in full shadow at TLE epoch
Visualization TLE readout
Latitude75.95055°
Longitude60.7814°
Altitude540.91 km
Speed7.595 km/s
Apparent Right ascension09h 36m 01s
Apparent Declination38° 58' 30"
Sunlit
Object is in daylight
Visualization observer readout
Local Sidereal Time21:19:57
Azimuth356.82° N
Elevation-11.023°
Doppler factor1
Orbital elements
Apogee altitude525.542 km
Perigee altitude510.005 km
Semi-major axis6,895.911 km
Eccentricity0.0011265
Inclination97.6153°
RAAN99.6737°
Arg. of periapsis305.5269°
True anomaly54.59637°
Mean anomaly54.4912°
Eccentric anomaly54.54377°
Mean motion3.79014 °/min
BSTAR0.00059566
Orbital period94.98 mins
Loading maneuver chart data...
Loading historical data...
Loading historical data...
Loading historical data...
Loading historical data...
Loading historical data...
Loading historical data...
Loading historical data...

OBJECT C Visibility forecast

Observer location: undefined°, undefined

Span
Click to sort rows by Start time (UTC) header in descending order
Start Az.
Max El. time (UTC)
Max El. Az.
Max El.
End time (UTC)
End Az.
5 mins2024-12-14 07:59:59.393Z193.568° SSW2024-12-14 08:01:59.393Z251.075° W37.047°2024-12-14 08:04:59.393Z332.464° NNW
5 mins2024-12-14 21:06:59.393Z337.844° N2024-12-14 21:08:59.393Z287.892° WNW27.843°2024-12-14 21:11:59.393Z227.734° WSW
|